Radiation Dose measured at exhaust stack monitor of Fukushima Daiichi Nuclear Power Station
Date,Time,Unit 5 6 shared exhaust cylinders,Wind Direction,Wind Velocity(m/s)
2021/12/05,00:00,3.9,northwest,4.9
2021/12/05,00:10,3.9,northwest,4.9
2021/12/05,00:20,3.9,northwest,4.7
2021/12/05,00:30,4.0,west-northwest,2.5
2021/12/05,00:40,3.9,west-northwest,3.3
2021/12/05,00:50,4.1,west-northwest,3.5
2021/12/05,01:00,4.1,northwest,4.0
2021/12/05,01:10,3.9,north-northwest,4.5
2021/12/05,01:20,3.9,north-northwest,3.9
2021/12/05,01:30,4.0,north,3.1
2021/12/05,01:40,3.9,north,4.8
2021/12/05,01:50,3.9,north-northwest,4.8
2021/12/05,02:00,3.9,north-northwest,4.3
2021/12/05,02:10,4.0,north-northwest,3.8
2021/12/05,02:20,3.8,north,4.0
2021/12/05,02:30,4.0,north,5.2
2021/12/05,02:40,4.0,north-northwest,5.7
2021/12/05,02:50,4.0,north-northwest,4.5
2021/12/05,03:00,3.8,north,3.9
2021/12/05,03:10,3.9,north-northwest,4.2
2021/12/05,03:20,3.9,north-northwest,3.9
2021/12/05,03:30,4.1,north-northwest,3.0
2021/12/05,03:40,3.9,north-northwest,3.0
2021/12/05,03:50,4.0,north-northwest,2.6
2021/12/05,04:00,3.8,north-northwest,3.1
2021/12/05,04:10,4.0,north-northwest,3.4
2021/12/05,04:20,4.0,north-northwest,2.5
2021/12/05,04:30,4.0,north-northwest,2.6
2021/12/05,04:40,4.0,northwest,3.0
2021/12/05,04:50,4.1,northwest,2.6
2021/12/05,05:00,3.8,northwest,3.8
2021/12/05,05:10,4.0,northwest,2.8
2021/12/05,05:20,4.0,northwest,2.8
2021/12/05,05:30,3.9,northwest,2.3
2021/12/05,05:40,3.8,northwest,3.4
2021/12/05,05:50,3.7,west-northwest,3.1
2021/12/05,06:00,4.1,northwest,3.0
2021/12/05,06:10,3.8,west-northwest,2.6
2021/12/05,06:20,3.8,northwest,2.8
2021/12/05,06:30,4.0,northwest,2.8
2021/12/05,06:40,3.9,northwest,2.5
2021/12/05,06:50,4.0,northwest,2.9
2021/12/05,07:00,4.2,northwest,2.6
2021/12/05,07:10,4.1,northwest,2.0
2021/12/05,07:20,4.0,west-northwest,2.8
2021/12/05,07:30,4.0,west-northwest,3.9
2021/12/05,07:40,3.9,northwest,4.4
2021/12/05,07:50,4.0,west-northwest,5.1
2021/12/05,08:00,4.0,west-northwest,4.2
2021/12/05,08:10,4.0,west-northwest,4.5
2021/12/05,08:20,4.1,west-northwest,4.0
2021/12/05,08:30,3.9,west-northwest,4.0
2021/12/05,08:40,3.9,west-northwest,2.6
2021/12/05,08:50,3.9,west-northwest,3.0
2021/12/05,09:00,4.1,west-northwest,2.6
2021/12/05,09:10,4.1,west-southwest,0.9
2021/12/05,09:20,3.9,west,2.0
2021/12/05,09:30,3.9,west,2.9
2021/12/05,09:40,4.0,west-northwest,4.3
2021/12/05,09:50,4.0,west-northwest,4.5
2021/12/05,10:00,4.0,north-northwest,1.9
2021/12/05,10:10,3.9,north,1.1
2021/12/05,10:20,3.9,northwest,4.2
2021/12/05,10:30,3.9,west-northwest,2.9
2021/12/05,10:40,3.8,north-northwest,4.2
2021/12/05,10:50,3.8,north-northwest,6.2
2021/12/05,11:00,4.0,north-northwest,5.4
2021/12/05,11:10,3.8,north-northwest,6.2
2021/12/05,11:20,3.9,north-northwest,4.4
2021/12/05,11:30,3.9,north,5.0
2021/12/05,11:40,4.0,north-northwest,2.5
2021/12/05,11:50,4.0,north-northwest,5.3
2021/12/05,12:00,3.8,northwest,5.0
2021/12/05,12:10,3.9,northwest,3.1
2021/12/05,12:20,3.9,northwest,2.6
2021/12/05,12:30,4.0,west,4.5
2021/12/05,12:40,3.9,west-southwest,4.9
2021/12/05,12:50,4.1,west,4.3
2021/12/05,13:00,3.7,west,4.3
2021/12/05,13:10,3.8,west,4.4
2021/12/05,13:20,4.0,west,3.5
2021/12/05,13:30,4.0,west-northwest,2.5
2021/12/05,13:40,3.8,west-northwest,3.0
2021/12/05,13:50,3.8,west-southwest,1.9
2021/12/05,14:00,4.0,west-southwest,3.2
2021/12/05,14:10,3.8,west,3.0
2021/12/05,14:20,4.0,west-southwest,2.6
2021/12/05,14:30,3.8,west-southwest,2.5
2021/12/05,14:40,4.0,southwest,3.0
2021/12/05,14:50,4.0,south-southwest,4.7
2021/12/05,15:00,3.9,southwest,3.6
2021/12/05,15:10,4.0,southwest,3.7
2021/12/05,15:20,3.9,west-southwest,3.7
2021/12/05,15:30,3.9,west-southwest,2.9
2021/12/05,15:40,3.9,west-southwest,2.6
2021/12/05,15:50,4.0,southwest,2.6
2021/12/05,16:00,4.0,west-southwest,2.0
2021/12/05,16:10,3.9,northwest,1.2
2021/12/05,16:20,3.9,north-northwest,1.5
2021/12/05,16:30,3.9,north-northwest,1.5
2021/12/05,16:40,4.0,west-northwest,1.4
2021/12/05,16:50,4.0,north-northwest,2.2
2021/12/05,17:00,4.0,north-northwest,3.8
2021/12/05,17:10,3.8,north,4.7
2021/12/05,17:20,3.7,north-northwest,5.3
2021/12/05,17:30,3.7,north-northwest,5.3
2021/12/05,17:40,4.1,north-northwest,5.1
2021/12/05,17:50,3.9,north-northwest,5.6
2021/12/05,18:00,4.0,north-northwest,5.6
2021/12/05,18:10,3.9,north-northwest,4.2
2021/12/05,18:20,3.9,north-northwest,5.3
2021/12/05,18:30,3.8,north-northwest,3.8
2021/12/05,18:40,3.7,north-northwest,3.5
2021/12/05,18:50,4.0,north-northwest,3.7
2021/12/05,19:00,4.0,northwest,3.7
2021/12/05,19:10,4.2,northwest,4.0
2021/12/05,19:20,3.9,northwest,3.1
2021/12/05,19:30,3.9,northwest,3.8
2021/12/05,19:40,4.0,northwest,3.4
2021/12/05,19:50,4.1,northwest,2.9
2021/12/05,20:00,3.7,west-northwest,2.5
2021/12/05,20:10,4.0,west-northwest,3.0
2021/12/05,20:20,3.8,northwest,2.0
2021/12/05,20:30,3.9,northwest,2.2
2021/12/05,20:40,4.0,west-northwest,2.6
2021/12/05,20:50,3.9,northwest,2.6
2021/12/05,21:00,3.8,northwest,2.3
2021/12/05,21:10,3.9,northwest,2.5
2021/12/05,21:20,3.9,northwest,2.9
2021/12/05,21:30,3.7,northwest,2.8
2021/12/05,21:40,4.0,northwest,2.6
2021/12/05,21:50,4.0,northwest,2.3
2021/12/05,22:00,4.0,northwest,2.6
2021/12/05,22:10,3.9,northwest,2.6
2021/12/05,22:20,3.8,northwest,3.0
2021/12/05,22:30,3.8,northwest,2.6
2021/12/05,22:40,4.0,northwest,2.3
2021/12/05,22:50,3.9,west-northwest,2.2
2021/12/05,23:00,3.9,west-northwest,1.9
2021/12/05,23:10,4.0,west-northwest,1.7
2021/12/05,23:20,4.0,west-northwest,1.7
2021/12/05,23:30,3.9,west,1.4
2021/12/05,23:40,3.8,west-northwest,1.5
2021/12/05,23:50,4.0,west-northwest,1.4
